Provo, UT

2:15 PM MST on December 09, 2019 (GMT -0700)
Provo Municipal

Weather History for KPVU - November, 2019

Change the Weather History Date:

Monday, November 18, 2019

  Actual Average Record
Temperature  
Mean Temperature 40 °F -  
Max Temperature 51 °F 44 °F 64 °F (2007)
Min Temperature 28 °F 28 °F 12 °F (2014)
Degree Days  
Heating Degree Days 26    
Moisture  
Dew Point 27 °F    
Average Humidity 65    
Maximum Humidity 82    
Minimum Humidity 39    
Precipitation  
Precipitation 0.00 in - - ()
Sea Level Pressure  
Sea Level Pressure 30.17 in    
Wind  
Wind Speed 3 mph (NNW)    
Max Wind Speed 6 mph    
Max Gust Speed -    
Visibility 10 miles    
Events      
Averages and records for this station are not official NWS values.
T = Trace of Precipitation, MM = Missing Value Source: NWS Daily Summary

Daily Weather History Graph

Daily Weather History Graph

Search for Another Location

Airport or City:

Astronomy

Nov. 18, 2019 Rise Set
Actual Time 7:15 AM MST 5:07 PM MST
Civil Twilight 6:46 AM MST 5:37 PM MST
Nautical Twilight 6:13 AM MST 6:10 PM MST
Astronomical Twilight 5:41 AM MST 6:42 PM MST
Moon 10:57 PM MST (11/18) 12:49 PM MST (11/18)
Length of Visible Light 10h 50m
Length of Day
9h 52m
Waning Gibbous, 62% of the Moon is Illuminated
Nov 18
Waning Gibbous
Nov 19
Last Quarter
Nov 26
New
Dec 3
First Quarter
Dec 11
Full

Hourly Weather History & Observations

Time (MST) Temp. Windchill Dew Point Humidity Pressure Visibility Wind Dir Wind Speed Gust Speed Precip Events Conditions
12:56 AM 30.0 °F 26.5 °F 25.0 °F 82% 30.30 in 10.0 mi South 3.5 mph - N/A   Clear
1:56 AM 30.9 °F 27.5 °F 25.0 °F 79% 30.29 in 10.0 mi East 3.5 mph - N/A   Clear
2:56 AM 32.0 °F - 26.1 °F 79% 30.28 in 10.0 mi Calm Calm - N/A   Clear
3:56 AM 28.9 °F 25.2 °F 24.1 °F 82% 30.27 in 10.0 mi NE 3.5 mph - N/A   Clear
4:56 AM 28.9 °F - 21.9 °F 75% 30.28 in 10.0 mi Calm Calm - N/A   Clear
5:56 AM 28.9 °F 23.9 °F 24.1 °F 82% 30.28 in 10.0 mi ENE 4.6 mph - N/A   Clear
6:56 AM 30.0 °F - 24.1 °F 79% 30.31 in 10.0 mi Calm Calm - N/A   Partly Cloudy
7:56 AM 33.1 °F 28.7 °F 26.1 °F 75% 30.31 in 10.0 mi SE 4.6 mph - N/A   Scattered Clouds
8:56 AM 39.0 °F - 26.1 °F 60% 30.30 in 10.0 mi Calm Calm - N/A   Scattered Clouds
9:56 AM 43.0 °F - 25.0 °F 49% 30.27 in 10.0 mi Calm Calm - N/A   Scattered Clouds
10:56 AM 44.1 °F 41.5 °F 27.0 °F 51% 30.26 in 10.0 mi Variable 4.6 mph - N/A   Mostly Cloudy
11:56 AM 46.0 °F 44.8 °F 28.9 °F 51% 30.23 in 10.0 mi WSW 3.5 mph - N/A   Mostly Cloudy
12:56 PM 46.9 °F - 28.9 °F 50% 30.19 in 10.0 mi West 5.8 mph - N/A   Mostly Cloudy
1:56 PM 51.1 °F - 28.9 °F 43% 30.15 in 10.0 mi West 4.6 mph - N/A   Mostly Cloudy
2:56 PM 51.1 °F - 28.0 °F 41% 30.11 in 10.0 mi West 4.6 mph - N/A   Mostly Cloudy
3:56 PM 51.1 °F - 27.0 °F 39% 30.09 in 10.0 mi Variable 5.8 mph - N/A   Mostly Cloudy
4:56 PM 48.9 °F - 27.0 °F 43% 30.06 in 10.0 mi North 4.6 mph - N/A   Clear
5:56 PM 45.0 °F 41.8 °F 26.1 °F 48% 30.06 in 10.0 mi NNW 5.8 mph - N/A   Scattered Clouds
6:56 PM 41.0 °F - 24.1 °F 51% 30.06 in 10.0 mi Calm Calm - N/A   Clear
7:56 PM 39.0 °F - 32.0 °F 76% 30.05 in 10.0 mi Calm Calm - N/A   Clear
8:56 PM 34.0 °F 29.8 °F 28.0 °F 79% 30.03 in 10.0 mi East 4.6 mph - N/A   Clear
9:56 PM 39.0 °F 36.8 °F 34.0 °F 82% 29.99 in 10.0 mi WNW 3.5 mph - N/A   Clear
10:56 PM 34.0 °F - 28.9 °F 82% 29.98 in 10.0 mi Calm Calm - N/A   Clear
11:56 PM 33.1 °F - 27.0 °F 78% 29.96 in 10.0 mi Calm Calm - N/A   Clear